Regional Weather Roundup
Issued by NWS Wakefield, VA

Home | Current Version | Previous Version | Graphics & Text | Print | Product List | Glossary On
Versions: 1 2 3 4 5 6 7 8 9 10 11 12 13 14 15 16 17 18 19 20 21 22 23 24 25 26 27 28 29 30 31 32 33 34 35 36 37 38 39 40 41 42 43 44 45 46 47 48 49 50
000
ASUS41 KAKQ 190410
RWRAKQ

REGIONAL WEATHER ROUNDUP
NATIONAL WEATHER SERVICE WAKEFIELD VA
1200 AM EDT FRI SEP 19 2014

Note: "fair" indicates few or no clouds below 12,000 feet with no
significant weather and/or obstructions to visibility. * = Denotes
station may not report precipitation (e.g., rain,snow,etc.),
thunder or fog.

VAZ042-051-052>054-056-190500-
NORTHERN VIRGINIA

CITY           SKY/WX    TMP DP  RH WIND       PRES   REMARKS
WASH NATIONAL  CLEAR     67  60  78 NE5       30.12R
DULLES         PTCLDY    61  56  83 N5        30.12R
FORT BELVOIR   CLEAR     59  59 100 CALM      30.11S
QUANTICO       CLEAR     63  60  90 NW8       30.11R
FREDERICKSBRG* CLEAR     61  61 100 CALM      30.10R FOG
STAFFORD*      CLEAR     57  57 100 CALM      30.15R FOG
WARRENTON      FOG       54  54 100 CALM      30.11R VSB 1/2
CULPEPER*      CLEAR     55  55 100 CALM      30.12R FOG
MANASSAS*      CLEAR     61  59  94 CALM      30.12R
LEESBURG*      PTCLDY    59  54  82 NW5       30.13S
WINCHESTER     CLEAR     54  46  76 CALM      30.13S
FRONT ROYAL*   PTCLDY    57  52  82 CALM      30.12R
LURAY*         PTCLDY    61  55  82 N7        30.12F
$$

VAZ048-049-060>072-079>083-190500-
CENTRAL AND SOUTH CENTRAL VIRGINIA...AND NORTH CENTRAL NORTH CAROLINA

CITY           SKY/WX    TMP DP  RH WIND       PRES   REMARKS
RICHMOND       PTCLDY    64  58  80 CALM      30.09R
CHESTERFIELD*  CLOUDY   N/A N/A N/A CALM      30.10R
PETERSBURG*    PTCLDY    59  57  94 CALM      30.10R
HANOVER        CLOUDY    61  60  97 CALM      30.11R
TAPPAHANNOCK*  CLEAR     58  56  92 CALM      30.10S FOG
CHARLOTTSVILLE CLOUDY    63  60  90 CALM      30.11R
ORANGE*        MOCLDY    61  59  94 CALM      30.12R
LOUISA*        FOG       59  57  94 CALM      30.09S VSB 1/4
FARMVILLE*     CLOUDY    66  66 100 N3        30.08R
CREWE*         CLOUDY    65  60  85 CALM      30.09R
FORT PICKETT*  CLOUDY    65  59  80 SE6       30.09R
LUNENBURG*     PTCLDY    66  62  86 CALM      30.09R
SOUTH HILL*    MOCLDY    66  61  82 CALM      30.14R
LAWRENCEVILLE* CLOUDY    64  61  92 CALM      30.09R
ROANOKE RAPIDS PTCLDY    59  57  94 CALM      30.09R
RALEIGH        MOCLDY    70  61  73 SE6       30.08R
$$

VAZ088>098-190500-
SOUTHEAST VIRGINIA

CITY           SKY/WX    TMP DP  RH WIND       PRES   REMARKS
NORFOLK        CLOUDY    69  57  65 CALM      30.08R
VIRGINIA BEACH MOCLDY    68  57  68 SE5       30.07S
NORFOLK NAVAL  CLOUDY    70  57  63 CALM      30.09R
WEST POINT*    CLEAR     63  59  87 CALM      30.10S
NEWPORT NEWS   CLOUDY    69  60  73 CALM      30.08R
LANGLEY AFB    CLOUDY    69  60  73 W1        30.08R
FORT EUSTIS    CLOUDY    68  54  61 S2        30.07R
WILLIAMSBURG*  CLOUDY    70  59  68 CALM      30.09R
HR EXEC AP*    CLOUDY    61  57  88 CALM      30.11R
FRANKLIN*      CLOUDY    61  57  88 CALM      30.09R
WAKEFIELD      CLOUDY    61  57  87 CALM      30.09R
$$

VAZ020-022-025-037-045-190500-
WEST CENTRAL AND SOUTHWEST VIRGINIA

CITY           SKY/WX    TMP DP  RH WIND       PRES   REMARKS
STAUNTON*      MOCLDY    64  56  75 N3        30.14R
HOT SPRINGS VA MOCLDY    55  42  62 E6        30.20R
LYNCHBURG      MOCLDY    65  61  87 NE3       30.11R
DANVILLE       CLOUDY    68  64  87 E3        30.08R
SOUTH BOSTON*  NOT AVBL
MARTINSVILLE   MOCLDY    64  64 100 CALM      30.11R FOG
ROANOKE        PTCLDY    67  61  81 CALM      30.11R
BLACKSBURG     PTCLDY    57  57 100 CALM      30.14S FOG
DUBLIN*        CLOUDY    60  57  89 CALM      30.14R
MARION*        CLOUDY    60  58  92 CALM      30.16R
HILLSVILLE*    CLOUDY    62  56  83 CALM      30.14R
RICHLANDS*     PTCLDY    61  56  85 NE5       30.13F
WISE*          CLEAR     55  54  94 NE3       30.15S
ABINGDON*      CLOUDY    63  56  78 E3        30.10S
$$

MDZ021>025-VAZ099-100-190500-
SOUTHERN MARYLAND AND THE DELMARVA PENINSULA

CITY           SKY/WX    TMP DP  RH WIND       PRES   REMARKS
PATUXENT RIVER PTCLDY    60  56  86 CALM      30.09S
BAY BRIDGE APT   N/A     61  59  94 CALM      30.10S
LEONARDTOWN    CLEAR     59  55  88 CALM      30.11S
DOVER          MOCLDY    63  57  82 SW1       30.08R
GEORGETOWN     CLOUDY    64  56  75 E7        30.10S
EASTON         PTCLDY    63  60  91 CALM      30.14R
CAMBRIDGE      PTCLDY    63  59  88 CALM      30.10R
SALISBURY      CLOUDY    65  60  84 CALM      30.10S
OCEAN CITY     CLOUDY    61  56  83 CALM      30.10R
WALLOPS ISLAND PTCLDY    62  58  86 CALM      30.10R
ACCOMACK*      CLEAR     57  54  88 CALM      30.09R
$$

NCZ012>017-030>032-190500-
EASTERN NORTH CAROLINA

CITY           SKY/WX    TMP DP  RH WIND       PRES   REMARKS
ELIZABETH CITY PTCLDY    65  58  78 CALM      30.08S
AHOSKIE*       CLEAR     59  57  92 CALM      30.09S
EDENTON*       PTCLDY    62  60  92 CALM      30.08R
CURRITUCK*     PTCLDY    66  58  74 CALM      30.09R
KILL DEVIL HLS PTCLDY    70  56  60 E5        30.07R
MANTEO         PTCLDY    69  57  66 E8        30.08R
CAPE HATTERAS  CLEAR     66  59  78 NE6       30.06R
TARBORO*       PTCLDY    62  59  88 CALM      30.10R
GOLDSBORO      PTCLDY    64  63  98 CALM      30.06R
WASHINGTON     CLEAR     62  57  85 CALM      30.08S
GREENVILLE     PTCLDY    63  59  88 CALM      30.09S
NEW BERN       CLEAR     66  59  78 NE5       30.08R
WILMINGTON     CLEAR     68  62  81 N3        30.04R
$$

VAZ048-190500-
ELSEWHERE

CITY           SKY/WX    TMP DP  RH WIND       PRES   REMARKS
HARRISBURG PA  PTCLDY    57  50  77 NE3       30.12R
BALTIMORE      PTCLDY    58  56  93 CALM      30.11R
ANNAPOLIS      CLEAR     65  63  93 N3        30.10S
ANDREWS AFB    CLEAR     58  58  99 CALM      30.11R
WILMINGTON DE  CLEAR     59  57  93 W3        30.11R
PHILADELPHIA   PTCLDY    63  55  75 W5        30.11R
WILDWOOD NJ*   CLEAR     59  52  77 CALM      30.11S
ATLANTIC CITY  PTCLDY    55  53  93 CALM      30.10R
HENDERSON NC   CLOUDY    67  58  73 SE6       30.08R
GREENSBORO     CLOUDY    70  62  76 SE3       30.07R
ROCKY MOUNT    PTCLDY    64  58  80 CALM      30.08R
FAYETTEVILLE   CLEAR     67  64  90 E3        30.05R
CHARLOTTE      CLOUDY    70  63  78 E7        30.05R
$$

VAZ100-190500-
MARINE

STATION/POSITION TIME  TEMP    WIND        PRES    WAVE   SWELL
                       AIR SEA DIR/SP/G            HT/PER HT/PER
                 (UTC) (F)     (DEG/KT/KT) (MB)    (FT/S) (FT/S)
44066 TX TWR #4  0400   69 72  310/  4/  8 1018.6R   3/11   3/11
CAPE MAY NJ      0400   70 76              1018.6S
LEWES DE         0400   65 73              1018.9S
15NM E FENWICK I 0400   70 72              1019.1R   3/11
OCEAN-CITY-INLET 0400   67 72              1018.6S
WACHAPREAGUE VA  0400   66 74              1018.8R
THOMAS POINT MD  0400   69 74  180/  4/  5 1020.3R
GOOSES REEF MD   0400   69     150/  4/  6 1019.5S
COVE POINT MD    0400   69                 1019.0R
SOLOMONS ISLAND  0400      76                N/A
BISHOPS HEAD MD  0400   68 74              1018.7R
PINEY POINT MD   0300           60/  4/  5   N/A
POTOMAC MD       0400   71     360/  6/  8 1018.4S
CAMBRIDGE MD     0400   66 74              1018.8S
LEWISETTA VA     0400   67 74              1018.7R
RAPPAHANNOCK LGT 0400                      1019.2S
STINGRAY PT      0400   72     160/  8/ 10   N/A
YORK RVR RNG VA  0400   72                 1017.9S
YORKTOWN VA      0400   69 76              1018.1R
JAMESTOWN VA     0400   68     210/  6/  6   N/A
DOMINION TERM VA 0400   71                 1018.5R
KIPTOPEKE VA     0400      79                N/A
CHES BAY BRIDGE  0400   71 75              1017.9S
CAPE HENRY VA    0400   71                 1017.2R
CHESAPEAKE LGHT  0300   70     100/ 10/ 12 1018.7F
WILLOUBY STN VA  0400   70                 1017.1S
S CRANEY ISL VA  0400                      1018.2S
CAPE HENRY BUOY  0400      75                N/A     3/11   2/11
1ST LANDING BUOY 0400   72     140/  8/ 12 1018.0S
CAPE CHARLES BUO 0400      74                N/A     3/12   3/12
OFFSHORE WE BUOY 0400      75                N/A     3/11   3/11
64NM E OF VA BCH 0400   72 72   50/ 10/ 12 1017.9F   4/12   3/12
DUCK PIER NC     0400   72 75              1017.6R
44100 DUCK FRF   0400      74                N/A     4/13   2/13
44056 DUCK FRF   0400                        N/A     3/11   2/11
OREGON INLET NC  0400   71 74              1018.0S
HATTERAS NC      0400   71 77              1018.3R
DIAMOND SHLS NC  0400   73      10/ 12/ 16 1017.4R   4/ 8   3/ 8
CAPE LOOKOUT NC  0300   76      60/ 16/ 18 1017.0R
$$



USA.gov is the U.S. government's official web portal to all federal, state and local government web resources and services.